Flag for Germany Weather past 2 weeks in Friesoythe, Lower Saxony, Germany

Now
52 °F

Partly sunny.


Feels Like: 47 °F
Forecast: 43 / 55 °F
Wind: 13 mph from Northwest

Location: Meppen-Mil

Current Time: Oct 22, 2014 at 2:47:38 PM

Latest Report: Oct 22, 2014 at 1:20 PM


Visibility: N/A

Pressure: 29.92 "Hg

Humidity: 62%

Dew point: 39 °F

Location of FriesoytheLocation

Historic Weather in Friesoythe — Graph

°F

Friesoythe temperature yesterday

Maximum temperature yesterday: 55 °F (at 12:20 AM)
Minimum temperature yesterday: 48 °F (at 8:20 PM)
Average temperature yesterday: 53 °F

Past Weeks' High & Low Weather Summary

 TemperatureHumidityPressure
High72 °F (Oct 19, 1:20 PM)100% (Oct 10, 11:20 PM)30.07 "Hg (Oct 10, 11:20 PM)
Low43 °F (Oct 11, 5:20 AM)56% (Oct 14, 1:20 PM)29.39 "Hg (Oct 21, 4:20 PM)
Average56 °F84%29.78 "Hg
* Reported Oct 7 1:20 PM — Oct 22 1:20 PM, Friesoythe, Weather by CustomWeather, © 2014

Note: Actual official high and low records may vary slightly from our data, if they occured in-between our weather recording intervals... More about our weather records

Advertising

Friesoythe weather history for previous 24 hours

 ConditionsComfort  
Time TempWeatherWind HumidityBarometerVisibility
1:20 PM
Oct 22
52 °FPartly sunny.13 mph62%29.92 "HgN/A
12:20 PM50 °FPartly sunny.10 mph76%29.92 "HgN/A
11:20 AM48 °FLight rain. Partly sunny.9 mph82%29.89 "HgN/A
10:20 AM48 °FPartly sunny.8 mph82%29.86 "HgN/A
9:20 AM46 °FSprinkles. Passing clouds.9 mph87%29.83 "HgN/A
8:20 AM46 °FPassing clouds.7 mph87%29.80 "HgN/A
7:20 AM46 °FSprinkles. Partly cloudy.10 mph87%29.77 "HgN/A
6:20 AM46 °FSprinkles. Passing clouds.8 mph87%29.77 "HgN/A
5:20 AM46 °FCool.9 mph82%29.74 "HgN/A
4:20 AM48 °FCool.8 mph82%29.74 "Hg6 mi
3:20 AM48 °FCool.9 mph87%29.71 "Hg5 mi
2:20 AM48 °FCool.10 mph87%29.68 "Hg6 mi
1:20 AM46 °FCool.13 mph93%29.65 "Hg6 mi
12:20 AM46 °FCool.12 mph87%29.62 "HgN/A
11:20 PM
Oct 21
48 °FCool.10 mph82%29.59 "Hg5 mi
10:20 PM48 °FCool.13 mph82%29.56 "HgN/A
9:20 PM48 °FCool.10 mph82%29.53 "HgN/A
8:20 PM48 °FCool.9 mph82%29.50 "HgN/A
7:20 PM50 °FCool.8 mph88%29.47 "HgN/A
6:20 PM50 °FCool.10 mph88%29.45 "HgN/A
5:20 PM52 °FCool.10 mph94%29.42 "HgN/A
4:20 PM54 °FDrizzle. Fog.9 mph94%29.39 "Hg3 mi
3:20 PM54 °FDrizzle. Broken clouds.10 mph94%29.42 "Hg4 mi
2:47 PM54 °FDrizzle. Broken clouds.14 mph88%29.45 "Hg2 mi
2:20 PM54 °FDrizzle. Broken clouds.12 mph88%29.45 "Hg4 mi
Weather by CustomWeather, © 2014

See weather overviewHow to use our weather pages